Regional Weather Roundup
Issued by NWS

Home | Current Version | Previous Version | Graphics & Text | Print | Product List | Glossary On
Versions: 1 2 3 4 5 6 7 8 9 10 11 12 13 14 15 16 17 18 19 20 21 22 23 24 25 26 27 28 29 30 31 32 33 34 35 36 37 38 39 40 41 42 43 44 45 46 47 48 49 50
239
ASUS43 KMKX 192100
RWRWI

WISCONSIN REGIONAL WEATHER ROUNDUP
NATIONAL WEATHER SERVICE MILWAUKEE/SULLIVAN WI
400 PM CDT TUE SEP 19 2017

NOTE: "FAIR" INDICATES FEW OR NO CLOUDS BELOW 12,000 FEET WITH NO
SIGNIFICANT WEATHER AND/OR OBSTRUCTIONS TO VISIBILITY.

WIZ001-002-006>008-014>016-023>028-192200-
NORTHWEST WISCONSIN

CITY           SKY/WX    TMP DP  RH WIND       PRES   REMARKS
SUPERIOR ARPT  PTSUNNY   63  57  82 NE15G22   29.86S
ASHLAND        CLOUDY    70  58  65 NE10      29.88F
HAYWARD        PTSUNNY   74  59  59 SE7       29.86F
SIREN          PTSUNNY   78  60  53 SE14      29.83S
CUMBERLAND     PTSUNNY   72  59  64 SE13G18   29.85F
RICE LAKE      PTSUNNY   78  60  53 SE17      29.86F
CHETEK         PTSUNNY   77  63  61 S15       29.86F
LADYSMITH      SUNNY     77  58  51 SE12      29.90F
EAU CLAIRE     PTSUNNY   79  62  56 SE18G25   29.84F HX  80
MENOMONIE      MOSUNNY   77  62  60 SE13G21   29.84F
NEW RICHMOND   MOSUNNY   77  60  56 SE9G20    29.82F
OSCEOLA        PTSUNNY   78  62  56 SE18      29.83F HX  80
$$

WIZ003>005-009-010-017-018-192200-
NORTH CENTRAL WISCONSIN

CITY           SKY/WX    TMP DP  RH WIND       PRES   REMARKS
MANITOWISH WTR PTSUNNY   72  56  58 SE10      29.94F
ARBOR VITAE    MOSUNNY   77  60  54 SE8G18    29.93F
WOODRUFF       MOSUNNY   77  60  54 SE8G18    29.93F
RHINELANDER    SUNNY     74  55  51 SE12G22   29.95F
EAGLE RIVER    CLOUDY    73  53  49 SE9       29.95F
LAND O LAKES   PTSUNNY   71  55  57 SE9       29.97F
PHILLIPS       PTSUNNY   74  57  54 SE12      29.90F
TOMAHAWK         N/A     75  55  50 S6        29.94F
MEDFORD        SUNNY     74  53  48 SE9G16    29.91F
MERRILL        NOT AVBL
$$

WIZ029-030-035-036-043>047-192200-
CENTRAL WISCONSIN

CITY           SKY/WX    TMP DP  RH WIND       PRES   REMARKS
WAUSAU         SUNNY     75  56  51 SE12      29.92F
MOSINEE        MOSUNNY   75  55  50 SE12      29.94F
MARSHFIELD     SUNNY     77  51  40 SE14      29.90F
STEVENS POINT  SUNNY     75  55  50 SE12      29.94F
WAUPACA        SUNNY     80  58  48 E9        29.94F HX  80
WAUTOMA        SUNNY     79  55  43 E7        29.92F
WISC RAPIDS    SUNNY     79  53  40 S12       29.92F
CAMP DOUGLAS   NOT AVBL
$$

WIZ011>013-019>022-031-037>040-048>050-192200-
NORTHEAST WISCONSIN

CITY           SKY/WX    TMP DP  RH WIND       PRES   REMARKS
ANTIGO         MOSUNNY   72  58  60 S9        29.97F
SHAWANO        MOSUNNY   75  60  60 SE10      29.95F
OCONTO         SUNNY     72  59  62 E6        29.97F
STURGEON BAY   SUNNY     70  53  54 E8        29.98F
GREEN BAY      MOSUNNY   75  60  59 E8        29.95F
MANITOWOC      SUNNY     68  59  73 SE7       29.97F
APPLETON       MOSUNNY   75  54  46 SE14      29.94F
CLINTONVILLE   MOSUNNY   75  57  53 SE8       29.94F
OSHKOSH        SUNNY     75  61  61 E13       29.93F
$$

WIZ032>034-041-042-053>061-192200-
SOUTHWEST WISCONSIN

CITY           SKY/WX    TMP DP  RH WIND       PRES   REMARKS
LA CROSSE      MOSUNNY   83  63  50 SE14      29.84F HX  84
SPARTA         SUNNY     79  60  51 SE9G16    29.89F HX  80
VIROQUA        MOSUNNY   76  64  65 SE7       29.91F
BOSCOBEL       MOSUNNY   83  62  49 VRB6      29.88F HX  84
PRAIRIE DU CHI MOSUNNY   80  58  46 SE7       29.87F HX  81
PLATTEVILLE    MOSUNNY   80  63  55 S5        29.91F HX  81
$$

WIZ056-057-062-063-064-067-068-192200-
SOUTH CENTRAL WISCONSIN

CITY           SKY/WX    TMP DP  RH WIND       PRES   REMARKS
REEDSBURG      SUNNY     79  59  49 SE7       29.91F HX  80
BARABOO/DELLS  SUNNY     80  52  37 SE7       29.92S HX  80
LONE ROCK      NOT AVBL
MINERAL POINT  MOSUNNY   81  64  57 SE6       29.92S HX  82
MADISON        MOSUNNY   81  60  48 S8        29.90F HX  82
MIDDLETON      SUNNY     80  59  47 SE10      29.92F HX  81
WATERTOWN      MOSUNNY   79  62  55 SE7       29.91F HX  80
MONROE         MOSUNNY   77  61  57 SE5       29.91F
JANESVILLE     PTSUNNY   81  63  54 SE7       29.90F HX  82
$$

WIZ051-052-058>065-066-070>072-192200-
SOUTHEAST WISCONSIN

CITY           SKY/WX    TMP DP  RH WIND       PRES   REMARKS
MILWAUKEE      PTSUNNY   69  65  86 NE10      29.95S FOG
WAUKESHA       SUNNY     73  61  64 E9        29.95F
MILWAUKEE/TIMM PTSUNNY   70  59  68 E8        29.96F
RACINE         CLOUDY    69  66  90 E7        29.96F FOG
BURLINGTON     SUNNY     76  64  66 E8        29.93F
KENOSHA        PTSUNNY   74  64  71 E9        29.95F
FOND DU LAC    SUNNY     77  56  48 SE10G18   29.93F
SHEBOYGAN      SUNNY     70  61  73 E9        29.96F
WEST BEND        N/A     72  61  68 E6        29.95F
JUNEAU         SUNNY     77  59  53 E7        29.93F
$$

LSZ147-162-192200-
LAKE SUPERIOR

STATION/POSITION TIME  TEMP    WIND        PRES    WAVE
                       AIR SEA DIR/SP/G            HT/PER
                 (UTC) (F)     (DEG/KT/KT) (MB)    (FT/S)
W MID LAKE BUOY  1950   57 55   40/ 14/ 14 1013.6F   1/ 4
DEVILS ISLAND    2000   59      60/ 14/ 16 1012.7F
SAXON HARBOR     2040   65     320/  3/  4 1011.5F
$$

LMZ867-665-643>646-192200-
LAKE MICHIGAN

STATION/POSITION TIME  TEMP    WIND        PRES    WAVE
                       AIR SEA DIR/SP/G            HT/PER
                 (UTC) (F)     (DEG/KT/KT) (MB)    (FT/S)
S GREEN BAY BUOY 2030   69 67  110/  8/ 10 1014.8F
N MID LAKE BUOY  1950   64 65   70/ 10/ 12 1016.3F   1/ 3
NORTHPORT PIER   2040   66      80/  5/  6 1015.6S
KEWAUNEE LAKESHO 2030   67      50/  2/  5 1014.6F
SHEBOYGAN LAKESH 2000   65      70/  6/  7 1014.9F
PORT WASHINGTON  2030   68      80/  6/  7 1015.2F
ATWATER BUOY     1909   67 68   30/  6/  8 1015.1R
MILWAUKEE LAKESH 2030   66      60/  8/  9   N/A
S MID LAKE BUOY  1950   67 69   40/  6/  6 1014.2F   1/ 4
KENOSHA   LAKESH 2000   68      80/  8/  9 1013.9
$$

TC  - TEMPERATURE IN CELSIUS
VSB - VISIBILITY IN STATUTE MILES
WCI - WIND CHILL INDEX
HX  - HEAT INDEX





USA.gov is the U.S. government's official web portal to all federal, state and local government web resources and services.